Enid, OK

10:44 AM CST on February 19, 2017 (GMT -0600)
Enid Woodring Municipal

Weather History for KWDG - October, 2012

Change the Weather History Date:

Sunday, October 7, 2012

  Actual Average Record
Temperature  
Mean Temperature 43 °F -  
Max Temperature 53 °F 72 °F 96 °F (2014)
Min Temperature 33 °F 53 °F 33 °F (2012)
Degree Days  
Heating Degree Days 22    
Moisture  
Dew Point 31 °F    
Average Humidity 76    
Maximum Humidity 93    
Minimum Humidity 33    
Precipitation  
Precipitation 0.00 in - - ()
Sea Level Pressure  
Sea Level Pressure 30.29 in    
Wind  
Wind Speed 7 mph (NW)    
Max Wind Speed 14 mph    
Max Gust Speed -    
Visibility 10 miles    
Events      
Averages and records for this station are not official NWS values.
T = Trace of Precipitation, MM = Missing Value Source: NWS Daily Summary

Daily Weather History Graph

Daily Weather History Graph

Search for Another Location

Airport or City:

Trip Planner

Search our weather history database for the weather conditions in past years. The results will help you decide how hot, cold, wet, or windy it might be!

Date:

Astronomy

Oct. 07, 2012 Rise Set
Actual Time 7:31 AM CDT 7:05 PM CDT
Civil Twilight 7:06 AM CDT 7:31 PM CDT
Nautical Twilight 6:36 AM CDT 8:00 PM CDT
Astronomical Twilight 6:06 AM CDT 8:30 PM CDT
Moon No Moon Rise 2:03 PM CDT (10/7)
Length of Visible Light 12h 25m
Length of Day
11h 33m
Waning Gibbous, 56% of the Moon is Illuminated
Oct 7
Waning Gibbous
Oct 8
Last Quarter
Oct 15
New
Oct 21
First Quarter
Oct 29
Full

Hourly Weather History & Observations

Time (CDT) Temp. Windchill Dew Point Humidity Pressure Visibility Wind Dir Wind Speed Gust Speed Precip Events Conditions
12:15 AM 42.8 °F 38.6 °F 33.8 °F 70% 30.34 in 10.0 mi North 6.9 mph - N/A   Clear
12:35 AM 42.8 °F 38.0 °F 33.8 °F 70% 30.34 in 10.0 mi North 8.1 mph - N/A   Clear
12:55 AM 42.8 °F 37.5 °F 33.8 °F 70% 30.34 in 10.0 mi North 9.2 mph - N/A   Clear
1:15 AM 41.0 °F 36.4 °F 33.8 °F 76% 30.34 in 10.0 mi North 6.9 mph - N/A   Clear
1:35 AM 39.2 °F 34.2 °F 33.8 °F 81% 30.35 in 10.0 mi NNW 6.9 mph - N/A   Clear
1:55 AM 37.4 °F 32.1 °F 32.0 °F 81% 30.35 in 10.0 mi NNW 6.9 mph - N/A   Clear
2:15 AM 37.4 °F 32.8 °F 32.0 °F 81% 30.35 in 10.0 mi NNE 5.8 mph - N/A   Clear
2:35 AM 37.4 °F 32.8 °F 32.0 °F 81% 30.35 in 10.0 mi NW 5.8 mph - N/A   Clear
2:55 AM 35.6 °F 30.7 °F 32.0 °F 87% 30.35 in 10.0 mi NNE 5.8 mph - N/A   Clear
3:15 AM 35.6 °F 30.7 °F 32.0 °F 87% 30.34 in 10.0 mi NNW 5.8 mph - N/A   Clear
3:35 AM 35.6 °F 29.2 °F 32.0 °F 87% 30.34 in 10.0 mi NNW 8.1 mph - N/A   Clear
3:55 AM 35.6 °F 29.2 °F 32.0 °F 87% 30.33 in 10.0 mi NNW 8.1 mph - N/A   Clear
4:15 AM 35.6 °F 29.2 °F 32.0 °F 87% 30.33 in 10.0 mi NNW 8.1 mph - N/A   Clear
4:35 AM 35.6 °F 29.9 °F 32.0 °F 87% 30.33 in 10.0 mi NNW 6.9 mph - N/A   Clear
4:55 AM 35.6 °F 29.9 °F 32.0 °F 87% 30.33 in 10.0 mi NNW 6.9 mph - N/A   Clear
5:15 AM 33.8 °F 27.7 °F 32.0 °F 93% 30.33 in 10.0 mi NNW 6.9 mph - N/A   Clear
5:35 AM 33.8 °F 27.7 °F 32.0 °F 93% 30.33 in 10.0 mi NNW 6.9 mph - N/A   Clear
5:55 AM 33.8 °F 27.7 °F 32.0 °F 93% 30.33 in 10.0 mi NNW 6.9 mph - N/A   Clear
6:15 AM 33.8 °F 26.4 °F 32.0 °F 93% 30.33 in 10.0 mi NNW 9.2 mph - N/A   Partly Cloudy
6:50 AM 35.6 °F 27.5 °F 32.0 °F 87% 30.32 in 10.0 mi NNW 11.5 mph - N/A   Partly Cloudy
8:50 AM 37.4 °F 29.3 °F 33.8 °F 87% 30.34 in 10.0 mi North 12.7 mph - N/A   Scattered Clouds
9:50 AM 44.6 °F 38.1 °F 35.6 °F 71% 30.35 in 10.0 mi NNE 13.8 mph - N/A   Scattered Clouds
11:50 AM 51.8 °F - 28.4 °F 41% 30.34 in 10.0 mi Calm Calm - N/A   Mostly Cloudy
12:50 PM 51.8 °F - 24.8 °F 35% 30.32 in 10.0 mi NNE 8.1 mph - N/A   Mostly Cloudy
1:59 PM 51.8 °F - 24.8 °F 35% 30.29 in 10.0 mi NE 6.9 mph - N/A   Mostly Cloudy
2:50 PM 53.6 °F - 24.8 °F 33% 30.27 in 10.0 mi SSW 5.8 mph - N/A   Mostly Cloudy
3:50 PM 53.6 °F - 24.8 °F 33% 30.25 in 10.0 mi Calm Calm - N/A   Mostly Cloudy
4:50 PM 53.6 °F - 26.6 °F 35% 30.21 in 10.0 mi South 6.9 mph - N/A   Mostly Cloudy
6:50 PM 48.2 °F - 30.2 °F 50% 30.21 in 10.0 mi SSW 13.8 mph - N/A   Mostly Cloudy
7:55 PM 42.8 °F 37.5 °F 32.0 °F 66% 30.22 in 10.0 mi SSW 9.2 mph - N/A   Mostly Cloudy
8:50 PM 39.2 °F 35.0 °F 32.0 °F 75% 30.22 in 10.0 mi South 5.8 mph - N/A   Scattered Clouds
9:15 PM 37.4 °F 33.8 °F 32.0 °F 81% 30.21 in 10.0 mi South 4.6 mph - N/A   Clear
9:35 PM 35.6 °F 31.7 °F 32.0 °F 87% 30.22 in 10.0 mi South 4.6 mph - N/A   Clear
9:55 PM 35.6 °F - 32.0 °F 87% 30.22 in 10.0 mi Calm Calm - N/A   Clear
10:15 PM 35.6 °F 31.7 °F 32.0 °F 87% 30.22 in 10.0 mi South 4.6 mph - N/A   Clear
10:35 PM 33.8 °F 29.6 °F 32.0 °F 93% 30.22 in 10.0 mi SSW 4.6 mph - N/A   Clear
10:55 PM 35.6 °F - 32.0 °F 87% 30.22 in 10.0 mi Calm Calm - N/A   Clear
11:15 PM 35.6 °F 32.8 °F 32.0 °F 87% 30.22 in 10.0 mi SW 3.5 mph - N/A   Clear
11:35 PM 35.6 °F 31.7 °F 32.0 °F 87% 30.21 in 10.0 mi SW 4.6 mph - N/A   Clear
11:55 PM 33.8 °F 30.8 °F 32.0 °F 93% 30.20 in 10.0 mi SSW 3.5 mph - N/A   Clear